sat.trackr.live / text

‹ back to catalog

METEOSAT-9 (MSG-2)

NORAD 28912 · 2005-049B

PAYLOAD ACTIVE UNKNOWN

§ Identity

Operator
Country
EUME
Launch date
2005-12-21
Launch site
FRGUI
Launch vehicle
Mass (kg)
RCS (m²)
2.08

Purposes: comms, earth_obs

External: N2YO · Heavens-Above · Gunter

§ Orbital elements

Epoch: 2026-05-24T21:06:55.373184Z

Period
1,436.06 min
Inclination
9.3116°
Eccentricity
0.0001505
Mean motion
1.00274292 rev/d
Perigee alt
35,779.5 km
Apogee alt
35,792.2 km
Semi-major
42,164.0 km
B*
0.0000e+0
RAAN
54.3974°
Arg perigee
324.0196°
Mean anomaly
226.4452°
Rev number
676

§ Raw data

METEOSAT-9 (MSG-2)1 28912U 05049B   26144.87980756  .00000120  00000+0  00000+0 0  99982 28912   9.3116  54.3974 0001505 324.0196 226.4452  1.00274292  6763

JSON: /api/v1/satellites/28912 · /tle

For live sub-satellite position, see the globe view (requires WebGL).

§ Visibility from observer

Set your observer location to see the next 7 days of passes ≥ 10°. The values pass through the URL so the page stays shareable.

No JS? Fill the form by hand. The geolocation button needs JavaScript.